ARIANE 5 DEB (SYLDA), 41750

Orbit data source: Space-Track

ARIANE 5 DEB (SYLDA), 41750 is space debris in HEO originally from a launch on Wed, 24 Aug 2016 UTC launched from the French Guiana (FRGUI). Debris objects in space refer to the collection of defunct objects orbiting the Earth. Examples of debris include non-operational satellites, rocket bodies, and fragments generated from explosions, collisions, or faulty payload assembly.

Loading next visibility...
Identifier
41750, 2016-053D
Orbit
HEO
Country
Flag of FRFR
Related business
Manufacturer
ADS/Bremen
Mission
Spacecraft
Bus & Motor
SYLDA 5, Unknown motor
Mass
440 kg wet, 440 kg dry
Launch date (UTC)
2016-08-24 (9 years ago)
Launch vehicle
Unknown
Launch site
French Guiana (FRGUI)
Object type
Payload
Rocket body
Debris
Shape & HBR
Cyl, 2.8 m
Radar Cross Section
27.391 m², Large (>1 m²)

Expand to show TLE details & history
Last TLE update: 21 hours ago

TLE from 21 hours ago
0 ARIANE 5 DEB (SYLDA)
1 41750U 16053D   25340.55184760  .00050759  00000-0  77547-2 0  9990
2 41750   6.1611   0.9814 5877985  46.2158 349.5414  4.23767864 99994
Epoch: 2025-12-06T13:14Z
TLE epoch observation values (Epoch: 2025-12-06T13:14:39.632Z)
Latitude
-0.00004°
Longitude
86.74191°
Altitude
1,120.951 km
Speed
9.033 km/s
True Right ascension
00h 03m 56s
True Declination
0° 00' 00"
Sunlit
Object was in daylight at epoch
Visualization orbit readout
Latitude
Unknown
Longitude
Unknown
Altitude
Unknown
Speed
Unknown
Apparent Right ascension
Unknown
Apparent Declination
Unknown
Sunlit
N/A
Visualization observer readout
Local Sidereal Time
08:38:21
Azimuth
Unknown
Elevation
Unknown
Doppler factor
Unknown
Orbital elements
Apogee altitude
19,242.028 km
Perigee altitude
273.003 km
Semi-major axis
16,135.653 km
Eccentricity
0.5878
Inclination
6.1611°
RAAN
0.9814°
Arg. of periapsis
46.2158°
True anomaly
314.12073°
Mean anomaly
349.5414°
Eccentric anomaly
335.66181°
Mean motion
1.05892 °/min
Orbital period
339.97 mins
BSTAR
0.0077547
Loading maneuver chart data...
Computing Atmospheric mass density...
Loading historical data...
Loading historical data...
Loading historical data...
Loading historical data...
Loading historical data...
Loading historical data...
Loading historical data...

Documentation

Showing up to 5 results
|